Tracking 18032 objects as of 26-March-2017
HD Live streaming from Space Station
objects crossing your sky now

ATLAS CENTAUR R/B

Track ATLAS CENTAUR R/B now!


NORAD ID: 10976
Int'l Code: 1978-068B
Perigee: 620.1 km
Apogee: 36,235.5 km
Inclination: 21.4 °
Period: 647.7 minutes
Semi major axis: 24798 km
RCS: 16.8333 m2 (large)
Launch date: June 29, 1978
Source: United States (US)
Launch site: AIR FORCE EASTERN TEST RANGE (AFETR)

Note: This is a ROCKET BODY
Your satellite tracking list
Your tracking list is empty





NASA's NSSDC Master Catalog

Two Line Element Set (TLE):
1 10976U 78068B   17083.59923201 +.00000024 +00000-0 +14728-3 0  9993
2 10976 021.3680 232.8319 7180864 205.1523 112.3330 02.22309096311208
Source of the keplerian elements: AFSPC